[[{"header":{"parameterUnit":"m.s-1","parameterCategory":1,"la1":30.2991,"la2":30.254,"lo1":-89.0895,"lo2":-89.0444,"dy":0.0017,"dx":0.0017,"nx":28,"ny":28,"refTime":"2025-02-27T09:00:00:Z","depth":0,"parameterNumber":2,"parameterNumberName":"U-component_of_WINDS"},"data":[0,0,0,0,0,0,0,0,0,0,0,0,0,0,0,0,0,0,0,0,0,0,0,0,0,0,0,0,0,0,0,0,0,0,0,0,0,0,0,0,0,0,0,0,0,0,0,0,0,0,0,0,0,0,0,0,0,0,0.4096,0.4098,0,0.4234,0.4235,0.4237,0.4295,0.4295,0.4294,0.4294,0.4437,0.4441,0.4445,0,0,0,0,0,0,0,0,0,0,0,0,0,0.3884,0.3888,0.4096,0.4098,0.41,0.4234,0.4235,0.4237,0.4295,0.4295,0.4294,0.4294,0.4436,0.4441,0.4446,0,0,0,0,0,0,0,0,0,0,0,0,0,0.3994,0.3889,0.4096,0.4145,0.415,0.4233,0.4235,0.4238,0.4295,0.4295,0.4294,0.4294,0.4434,0.444,0.4446,0.4492,0,0,0.4465,0.4467,0,0,0,0,0,0,0,0,0.3988,0.4002,0.4136,0.4141,0.4148,0.4247,0.4213,0.4323,0.4295,0.424,0.4294,0.4294,0.4374,0.4385,0.4412,0.4498,0.4505,0.4465,0.4469,0.4472,0.4473,0,0,0,0,0,0,0,0.398,0.3997,0.4151,0.4138,0.4145,0.416,0.4175,0.4234,0.4308,0.4245,0.4249,0.4265,0.4378,0.4406,0.4416,0.4507,0.4465,0.4471,0.4474,0.4477,0.4636,0.4636,0,0,0,0,0,0,0.3965,0.399,0.4146,0.4155,0.4065,0.4164,0.4181,0.4215,0.4307,0.4321,0.4265,0.4267,0.4396,0.4409,0.4421,0.448,0.4472,0.4477,0.4481,0.4635,0.4636,0.4636,0,0,0,0,0,0,0.396,0.3978,0.4141,0.4074,0.4095,0.4168,0.4206,0.4218,0.4247,0.4323,0.4336,0.4281,0.4396,0.4413,0.4473,0.4486,0.448,0.4486,0.4634,0.4635,0.4636,0.4598,0,0,0,0,0,0,0.3953,0.3976,0.3994,0.4074,0.4099,0.419,0.4207,0.4221,0.4257,0.4261,0.4341,0.4354,0.4397,0.4464,0.4479,0.4494,0.449,0.4634,0.4635,0.4636,0.4598,0.4597,0.4596,0,0,0,0,0,0.3946,0.3979,0.3995,0.4013,0.4123,0.4191,0.4206,0.4254,0.4258,0.4277,0.4325,0.4351,0.4481,0.447,0.4487,0.4504,0.4633,0.4635,0.4636,0.4599,0.4598,0.4596,0,0,0,0,0,0,0.39,0.399,0.4009,0.4068,0.4121,0.4201,0.4226,0.4252,0.4306,0.4307,0.4366,0.4383,0.4439,0.4478,0.4463,0.4552,0.4559,0.4564,0.4525,0.4525,0.4524,0.4514,0.4495,0,0,0,0,0,0.3896,0.3944,0.402,0.4065,0.4091,0.4153,0.4185,0.4218,0.4276,0.4299,0.4351,0.4407,0.446,0.4494,0.4548,0.4604,0.4622,0.4624,0.4623,0.4621,0.4625,0.4657,0.4659,0.4641,0.4641,0.4641,0,0,0.3891,0.3946,0.3972,0.4058,0.4103,0.4151,0.4172,0.4223,0.4259,0.4307,0.4367,0.4407,0.4473,0.4531,0.4559,0.4565,0.4634,0.4623,0.4622,0.4626,0.4658,0.466,0.4661,0.4642,0.4641,0.4641,0,0,0.3905,0.3951,0.3993,0.4037,0.4104,0.4145,0.4155,0.423,0.4258,0.4319,0.4356,0.4399,0.4491,0.4535,0.457,0.4598,0.4624,0.4613,0.4609,0.4639,0.464,0.4642,0.4651,0.4654,0.4617,0.4617,0.4617,0,0.3889,0.3962,0.4012,0.406,0.4096,0.4139,0.4182,0.4223,0.4304,0.4328,0.4333,0.4447,0.4494,0.4563,0.4569,0.4596,0.4609,0.4605,0.4636,0.4638,0.464,0.465,0.4653,0.4615,0.4615,0.4615,0.4615,0,0.394,0.399,0.4016,0.4092,0.4131,0.4176,0.4232,0.4265,0.4294,0.4334,0.4395,0.4453,0.4518,0.4536,0.4565,0.4609,0.461,0.4624,0.4633,0.4639,0.4649,0.4654,0.4613,0.4613,0.4614,0.4614,0,0,0.3931,0.4032,0.4041,0.4075,0.4151,0.4191,0.4237,0.43,0.4328,0.4381,0.4422,0.4496,0.4509,0.4549,0.4583,0.4608,0.4626,0.462,0.4622,0.4619,0.4677,0.4666,0.467,0.4643,0.4644,0.4644,0.4671,0,0.3956,0.404,0.4085,0.4151,0.4198,0.4238,0.4279,0.4329,0.4368,0.4413,0.4455,0.4507,0.452,0.4544,0.4571,0.4618,0.4638,0.4617,0.4681,0.4683,0.4665,0.4675,0.4665,0.4687,0.4676,0.4676,0.4677,0,0.3996,0.4048,0.4118,0.4187,0.4209,0.4244,0.4304,0.4347,0.4404,0.443,0.4472,0.4505,0.4555,0.4559,0.4628,0.4612,0.4641,0.4667,0.467,0.4679,0.4681,0.4685,0.4696,0.4699,0.4684,0.4683,0.4683,0,0.3983,0.407,0.4123,0.4151,0.4233,0.4257,0.4292,0.435,0.4384,0.4436,0.4459,0.4517,0.4548,0.4592,0.4639,0.4637,0.4704,0.4712,0.4727,0.4726,0.4741,0.474,0.4757,0.4758,0.4758,0.4758,0.4757,0,0.4006,0.4047,0.4118,0.4151,0.4198,0.4248,0.4294,0.4332,0.4382,0.4423,0.4461,0.4499,0.4559,0.4603,0.464,0.4692,0.4706,0.4728,0.4738,0.4726,0.4723,0.4746,0.4746,0.4759,0.4758,0.4758,0.4758,0,0.4,0.4049,0.4109,0.4181,0.42,0.4231,0.4293,0.4326,0.4365,0.4416,0.4431,0.4492,0.4547,0.4597,0.467,0.4695,0.4747,0.4759,0.4727,0.4733,0.4746,0.4744,0.478,0.4787,0.4782,0.4782,0.4782,0,0.4012,0.4045,0.4119,0.4149,0.4183,0.423,0.4265,0.4314,0.4349,0.4416,0.4441,0.4497,0.4546,0.4631,0.4682,0.4737,0.4751,0.476,0.476,0.4746,0.4752,0.475,0.4753,0.476,0.4759,0.4759,0.4759,0,0.4028,0.405,0.4098,0.4154,0.4194,0.4241,0.4289,0.4311,0.437,0.4406,0.4461,0.4499,0.4572,0.4628,0.4688,0.4725,0.4752,0.4758,0.4765,0.4753,0.4733,0.4744,0.4726,0.4758,0.4758,0.4758,0.4758,0.4758,0.4032,0.4062,0.4119,0.4171,0.4212,0.4255,0.4289,0.4332,0.4378,0.4442,0.4468,0.4524,0.4579,0.4663,0.4699,0.4744,0.475,0.4759,0.4762,0.4764,0.4761,0.4725,0.4755,0.4755,0.4755,0.4755,0.4755,0,0.405,0.4088,0.4135,0.42,0.4241,0.4261,0.4314,0.4347,0.4395,0.4444,0.449,0.4553,0.4607,0.4661,0.4718,0.4743,0.4756,0.4756,0.4755,0.4763,0.4752,0.4741,0.4744,0.4744,0.4744,0.4744,0.4744,0.4744,0.4065,0.4117,0.4145,0.4218,0.4255,0.431,0.4339,0.4379,0.4418,0.4486,0.453,0.4565,0.4616,0.4676,0.4726,0.474,0.476,0.4756,0.4774,0.4763,0.4764,0.4764,0.4754,0.476,0.476,0.4781,0.4781,0.4781]},{"header":{"parameterUnit":"m.s-1","parameterCategory":1,"la1":30.2991,"la2":30.254,"lo1":-89.0895,"lo2":-89.0444,"dy":0.0017,"dx":0.0017,"nx":28,"ny":28,"refTime":"2025-02-27T09:00:00:Z","depth":0,"parameterNumber":3,"parameterNumberName":"V-component_of_WINDS"},"data":[0,0,0,0,0,0,0,0,0,0,0,0,0,0,0,0,0,0,0,0,0,0,0,0,0,0,0,0,0,0,0,0,0,0,0,0,0,0,0,0,0,0,0,0,0,0,0,0,0,0,0,0,0,0,0,0,0,0,2.3762,2.3761,0,2.372,2.372,2.3719,2.376,2.3762,2.3764,2.3765,2.3716,2.3713,2.371,0,0,0,0,0,0,0,0,0,0,0,0,0,2.3871,2.3869,2.3762,2.3761,2.3761,2.372,2.372,2.3719,2.376,2.3762,2.3764,2.3766,2.3717,2.3714,2.371,0,0,0,0,0,0,0,0,0,0,0,0,0,2.3826,2.3868,2.3762,2.3777,2.3777,2.372,2.372,2.3719,2.376,2.3762,2.3764,2.3767,2.3718,2.3714,2.371,2.3634,0,0,2.3697,2.3695,0,0,0,0,0,0,0,0,2.3828,2.3822,2.3775,2.3775,2.3776,2.3748,2.374,2.369,2.3759,2.3766,2.3765,2.3768,2.3724,2.372,2.3706,2.3632,2.363,2.3696,2.3694,2.3692,2.3691,0,0,0,0,0,0,0,2.3831,2.3824,2.3745,2.3774,2.3775,2.3783,2.378,2.3731,2.3732,2.3766,2.3769,2.3763,2.3725,2.371,2.3705,2.3629,2.3696,2.3693,2.369,2.3688,2.3491,2.3489,0,0,0,0,0,0,2.3834,2.3826,2.3747,2.3744,2.3809,2.3779,2.3775,2.3755,2.3732,2.3732,2.3761,2.3766,2.3716,2.371,2.3704,2.3614,2.3692,2.3688,2.3686,2.3494,2.3491,2.3488,0,0,0,0,0,0,2.3836,2.3826,2.3748,2.3786,2.3777,2.3775,2.3751,2.3752,2.3738,2.3729,2.3729,2.3746,2.3718,2.371,2.3652,2.3613,2.3686,2.3682,2.3497,2.3493,2.3489,2.3435,0,0,0,0,0,0,2.3839,2.3827,2.38,2.3785,2.3774,2.3698,2.3749,2.375,2.3731,2.3736,2.3715,2.3714,2.3719,2.3658,2.3648,2.3609,2.3679,2.3501,2.3495,2.3491,2.344,2.3429,2.342,0,0,0,0,0,2.3843,2.3784,2.3798,2.3788,2.3741,2.3696,2.369,2.3699,2.3728,2.3699,2.3694,2.3715,2.3619,2.3652,2.364,2.36,2.3503,2.3497,2.3491,2.3444,2.3431,2.3421,0,0,0,0,0,0,2.3792,2.3783,2.3798,2.3733,2.3715,2.3703,2.3668,2.3685,2.3657,2.3662,2.3673,2.3668,2.3607,2.3597,2.3634,2.3526,2.3566,2.3557,2.3534,2.3522,2.3512,2.3515,2.3675,0,0,0,0,0,2.3774,2.374,2.3733,2.3677,2.3668,2.3669,2.365,2.3659,2.364,2.3632,2.3622,2.3602,2.3567,2.3544,2.3512,2.3439,2.3435,2.3405,2.3395,2.3387,2.338,2.3341,2.3327,2.3468,2.3468,2.3468,0,0,2.3734,2.3725,2.3703,2.3667,2.3654,2.3618,2.3662,2.3622,2.3595,2.3625,2.3571,2.3563,2.354,2.3475,2.3445,2.3465,2.334,2.338,2.3373,2.337,2.3333,2.332,2.3308,2.3464,2.3465,2.3465,0,0,2.3645,2.3635,2.3587,2.3574,2.3556,2.3557,2.3546,2.3531,2.3528,2.3474,2.3496,2.3463,2.3403,2.3386,2.337,2.3275,2.3293,2.3264,2.3212,2.3174,2.3163,2.3153,2.3119,2.3107,2.3256,2.3256,2.3256,0,2.3598,2.3546,2.356,2.3519,2.3501,2.353,2.3481,2.3467,2.3437,2.3424,2.3447,2.3373,2.336,2.3291,2.3268,2.3254,2.324,2.3266,2.3164,2.3154,2.3145,2.3112,2.31,2.3253,2.3253,2.3253,2.3254,0,2.349,2.3453,2.3417,2.339,2.3369,2.3324,2.3329,2.3305,2.3316,2.3315,2.3259,2.3244,2.321,2.3194,2.3203,2.3126,2.3139,2.3163,2.3203,2.3128,2.3098,2.3085,2.3248,2.3249,2.325,2.3251,0,0,2.3366,2.3349,2.3335,2.3324,2.3306,2.3277,2.3232,2.3201,2.318,2.3159,2.3121,2.3071,2.3093,2.3074,2.3081,2.3048,2.2974,2.3075,2.3075,2.3057,2.2888,2.287,2.2856,2.2986,2.2983,2.2981,2.289,0,2.3276,2.3202,2.3213,2.314,2.3106,2.3134,2.3095,2.3078,2.3076,2.3045,2.3042,2.3006,2.3038,2.3027,2.2995,2.2989,2.294,2.2996,2.2949,2.2947,2.2954,2.284,2.2821,2.2735,2.2878,2.2876,2.2874,0,2.3161,2.3138,2.3063,2.3051,2.3037,2.3002,2.2975,2.2946,2.2927,2.2928,2.2908,2.2921,2.2875,2.2917,2.2853,2.2891,2.2873,2.2867,2.2864,2.2859,2.2906,2.2832,2.2707,2.2694,2.2856,2.2857,2.2859,0,2.3078,2.3028,2.2977,2.2966,2.2951,2.2926,2.2918,2.2902,2.2883,2.2858,2.2845,2.2814,2.2797,2.2772,2.2776,2.2806,2.2711,2.2753,2.2709,2.2709,2.2687,2.2688,2.2558,2.2675,2.2676,2.2676,2.2676,0,2.2976,2.2929,2.294,2.2908,2.2856,2.2869,2.2816,2.2811,2.2797,2.2763,2.2784,2.2752,2.276,2.2727,2.273,2.2677,2.2669,2.2667,2.2668,2.2665,2.2665,2.2652,2.2658,2.2673,2.2673,2.2674,2.2675,0,2.2875,2.288,2.2826,2.2817,2.2813,2.2775,2.2766,2.2735,2.2735,2.2693,2.2683,2.2682,2.2645,2.2648,2.2605,2.2607,2.2541,2.2549,2.2548,2.255,2.2505,2.2509,2.2362,2.2343,2.2473,2.2472,2.2471,0,2.2809,2.2774,2.2761,2.2742,2.2733,2.27,2.2682,2.2692,2.2671,2.2648,2.262,2.2586,2.2559,2.2498,2.2492,2.246,2.2467,2.2418,2.2462,2.246,2.2466,2.2468,2.2464,2.2409,2.2407,2.2406,2.2405,0,2.2692,2.2697,2.267,2.2644,2.2622,2.2601,2.2582,2.2564,2.2573,2.2548,2.2512,2.2491,2.2449,2.2414,2.2384,2.2373,2.239,2.2391,2.2379,2.2375,2.2376,2.2375,2.2524,2.2394,2.2395,2.2396,2.2397,2.2397,2.2607,2.2577,2.2564,2.2533,2.2521,2.2503,2.2474,2.2472,2.2442,2.2411,2.2418,2.2377,2.2359,2.232,2.2307,2.2274,2.2292,2.2274,2.227,2.2265,2.226,2.2382,2.2269,2.2269,2.2269,2.2269,2.227,0,2.2491,2.2484,2.2456,2.2431,2.2406,2.2427,2.2407,2.2385,2.2349,2.2332,2.2306,2.2264,2.2231,2.2223,2.219,2.2165,2.2172,2.2156,2.2158,2.2155,2.2247,2.226,2.2151,2.2151,2.2152,2.2152,2.2152,2.2152,2.2428,2.2379,2.2382,2.2326,2.232,2.2282,2.2269,2.2252,2.2239,2.2192,2.2165,2.2161,2.2148,2.2115,2.2084,2.2083,2.2069,2.2051,2.2052,2.2137,2.2149,2.216,2.2173,2.2048,2.2047,2.1963,2.1963,2.1962]}]]